7 * 24
多渠道服务支持
STARLINK-11547是美国SpaceX公司星链(Starlink)星座的第二代卫星,于2025年1月13日发射入轨。星链项目旨在打造近地轨道卫星互联网星座,为全球偏远、欠发达地区提供高速宽带网络服务。 该卫星运行在低地球轨道,属于星链第二代组网卫星,大概率搭载了先进星间激光通信终端,支持百Gbps级星间链路传输,助力构建全球无缝覆盖的太空互联网基础设施,进一步扩大星链星座的服务覆盖范围与通信容量。
美国
(US)
| 数据来源 | 国际轨道数据 |
| 星历时间: | 2026-06-13T22:01:14+0800 1天前 查看轨道信息 |
| 半长轴: | 6734.534km |
| 偏心率: | 0.0001861 |
| 轨道倾角: | 42.999° |
| 近地点辐角 | 254.150° |
| 升交点赤经 | 268.354° |
| 平近点角 | 105.916° |
| 近地点: | 355.143km |
| 远地点: | 357.651km |
| 周期: | 91.669分钟 |
| 每日圈数: | 15.708745 |